Location: Miles
(41.4492°N, 81.6087°W)
Time: 23:13:24
(UTC+00:00)

Courier 1B Rocket - Pass Details

Date: 17 September 2024
Orbit: 920 x 1201 km, 28.2° (Epoch: 09 October)

Event Time Altitude Azimuth Distance (km) Brightness Sun altitude
Rises 21:13:27 0° 238° (WSW) 3,632 9.3 24.6°
Reaches altitude 10° 21:16:29 10° 225° (SW) 2,725 8.7 24.0°
Maximum altitude 21:21:44 25° 172° (S) 1,911 6.9 23.1°
Drops below altitude 10° 21:27:17 10° 120° (ESE) 2,888 7.2 22.1°
Sets 21:30:36 0° 108° (ESE) 3,896 7.7 21.5°
